Theta_e
312 312 312 312 313 313 313 314 314 315 315 316 316 316 316 316 317 317 317 317 317 318 320 319 319 320 321 321 320 321 323 326 328 328 327 326 324 323 323 323 323 323 323 323 325 329 331 333 334 334 335 335 337 341 340 335 333 333 333 335 336 336 336 336 338 337 334 333 332 332 332 331 333 335 337 339 339 339 339 337 337 336 335 334 334
312 312 312 312 313 313 314 314 315 315 316 317 317 317 317 317 317 317 317 318 317 317 318 319 319 318 320 321 321 320 320 322 325 328 329 329 326 324 323 323 322 321 320 323 327 329 330 332 333 332 334 335 335 339 340 336 336 335 334 335 337 337 337 337 337 337 336 335 333 333 331 330 331 331 333 337 339 338 339 338 338 337 337 336 335
311 312 312 313 313 313 314 315 315 315 316 317 317 318 318 318 318 318 318 318 318 318 318 319 319 318 317 319 321 321 320 320 321 324 327 328 328 325 323 322 322 321 320 323 325 325 328 331 332 331 332 333 333 335 335 334 334 334 334 336 337 337 336 336 336 337 337 336 335 334 333 331 331 331 331 334 337 338 338 338 338 339 338 338 337
311 311 312 312 313 313 314 314 314 315 316 317 317 317 318 318 319 319 319 319 319 319 319 319 319 318 318 318 319 321 321 320 320 321 324 326 328 327 326 325 324 323 322 322 322 323 327 330 331 330 330 331 333 334 333 333 334 334 334 335 335 335 334 334 334 335 336 337 336 335 334 333 332 332 331 332 335 338 337 337 338 339 339 339 339
311 311 312 313 313 313 314 314 314 315 315 316 317 317 318 318 318 319 319 319 320 320 320 320 320 320 319 318 318 319 320 320 321 321 321 322 324 326 327 328 327 325 324 322 322 325 328 329 329 331 332 332 333 333 333 334 334 335 334 334 333 333 332 333 332 332 334 335 334 334 334 334 334 333 333 332 333 337 338 338 338 339 339 340 339
311 311 312 313 313 313 313 313 314 315 315 316 316 317 318 318 318 318 318 319 319 319 319 320 320 320 320 320 319 319 319 319 320 321 321 319 320 322 324 326 327 327 327 325 323 324 328 329 328 330 334 334 333 333 333 333 333 333 333 333 333 332 333 333 332 331 333 334 334 333 333 334 334 334 334 333 333 335 337 337 338 338 339 339 339
311 311 311 312 312 313 313 313 314 314 315 316 316 316 317 317 317 317 318 318 318 318 318 319 319 320 320 320 320 320 320 319 319 321 321 321 320 319 320 323 326 326 326 326 324 325 328 329 328 328 332 335 333 332 332 332 332 333 332 333 334 334 333 333 333 332 332 333 333 333 333 333 333 333 334 333 333 333 335 335 335 336 337 338 339
310 310 311 311 312 312 312 313 313 314 315 315 315 315 315 316 316 317 317 317 317 317 317 318 318 319 320 321 321 320 320 319 319 320 321 321 321 320 320 322 324 324 325 325 325 326 326 328 328 328 331 333 332 331 332 332 332 332 332 333 334 335 335 334 334 334 333 333 333 333 332 332 332 332 333 332 332 332 334 334 334 334 336 337 337
310 310 310 311 311 311 312 312 313 314 315 315 314 314 315 315 316 316 317 316 316 316 316 317 318 319 320 320 320 320 319 318 318 318 319 320 321 322 323 324 324 324 325 326 326 327 326 327 329 329 330 331 330 329 330 330 331 331 332 333 334 335 335 334 334 334 333 332 332 333 333 332 332 332 332 332 332 332 333 334 334 334 335 336 337
310 310 310 310 311 311 312 312 313 313 314 314 313 314 314 315 315 315 316 315 315 315 315 316 317 318 319 319 319 318 317 316 316 317 318 318 319 319 320 321 322 323 324 325 326 326 326 326 327 327 327 327 327 327 327 327 328 329 330 331 332 333 334 334 334 334 333 333 333 333 333 333 332 332 332 332 333 334 334 334 335 336 336 334 335
310 310 310 310 310 311 312 312 312 313 313 313 313 314 314 314 314 314 315 315 314 314 314 315 316 316 316 316 316 315 315 314 315 316 316 317 317 318 318 318 319 321 322 324 324 324 325 325 325 325 325 326 326 327 327 327 327 327 328 329 329 329 330 331 333 334 334 334 334 334 335 334 334 333 332 332 333 333 334 334 335 338 336 333 333
310 310 310 310 310 311 311 311 312 312 312 312 312 313 313 313 313 313 314 314 314 314 313 314 314 313 313 313 313 313 313 313 314 314 315 316 316 317 317 317 317 319 321 322 322 322 323 324 324 324 324 325 325 325 324 325 326 326 327 327 326 325 325 326 328 329 331 333 334 335 335 334 335 334 333 333 332 332 333 333 334 336 335 332 332
310 310 310 310 310 311 310 311 311 311 312 312 312 313 312 312 313 313 313 314 313 313 313 313 313 312 311 311 311 311 311 312 313 314 315 315 316 316 316 316 317 318 320 320 320 320 321 322 323 324 324 325 325 325 324 324 324 324 325 326 326 326 326 325 325 325 325 327 331 333 333 334 335 336 335 334 334 333 333 332 333 334 334 333 333
309 309 310 310 310 310 310 310 310 311 311 311 312 312 312 312 312 312 313 313 313 313 312 312 312 312 311 310 310 310 310 310 311 312 314 315 315 316 316 316 317 318 319 320 320 320 320 321 322 323 323 324 324 324 325 325 326 326 326 326 327 327 328 328 327 326 325 324 325 326 327 328 331 332 333 335 334 333 333 333 333 333 333 333 334
309 309 309 309 309 309 310 310 310 310 310 311 311 311 312 312 312 312 312 312 313 313 312 312 311 311 311 310 310 309 309 308 309 310 312 313 315 316 316 317 319 320 320 320 320 321 321 321 322 322 322 322 321 321 322 323 324 325 325 325 325 325 326 327 327 329 329 328 327 326 326 325 326 326 328 330 332 331 331 332 332 332 332 333 333
308 308 309 309 309 309 309 309 309 309 310 310 310 310 311 311 311 312 312 312 312 312 312 312 311 311 311 310 309 308 308 307 307 308 310 311 312 315 316 317 318 320 321 321 321 322 322 322 322 322 321 321 320 320 320 320 321 323 323 323 323 323 323 323 323 325 327 328 327 327 327 327 327 327 326 327 328 328 328 329 329 330 331 332 332
308 308 308 308 309 309 309 309 309 309 309 309 309 309 309 310 310 311 312 312 312 311 312 312 311 310 310 310 309 309 308 307 306 306 308 309 311 313 315 316 317 319 319 320 321 322 321 322 322 321 320 320 320 320 320 320 320 320 322 323 323 323 323 323 323 323 324 324 325 325 325 325 326 326 325 325 325 325 327 328 329 329 331 332 332
307 308 308 308 308 308 308 308 309 309 309 309 309 309 309 309 309 310 311 311 311 311 311 311 311 310 309 309 309 308 308 307 306 305 306 308 310 312 313 314 315 316 317 317 318 319 319 319 318 317 317 317 317 318 319 318 317 317 318 319 320 321 322 323 322 323 323 323 324 324 324 325 325 325 326 326 326 326 327 328 328 329 330 330 330
307 307 307 308 308 308 308 308 309 309 308 308 308 308 308 308 309 309 310 311 310 310 311 311 311 310 309 309 309 308 308 307 305 304 305 307 309 310 311 311 312 313 313 314 316 317 317 316 315 314 314 314 314 315 315 315 315 315 314 315 316 318 319 320 320 320 320 320 321 321 321 322 323 324 325 326 326 327 327 327 328 328 329 329 328
306 307 307 307 308 308 308 308 309 308 308 307 307 308 308 308 308 309 309 310 310 310 310 311 311 310 310 309 309 309 308 307 305 303 304 306 307 308 308 308 308 309 310 312 314 315 316 315 314 313 313 313 313 313 314 314 314 313 313 313 314 315 316 316 316 315 315 316 316 318 319 320 321 322 323 324 324 325 325 327 328 329 329 329 329
306 306 306 307 307 308 308 308 308 308 307 307 307 307 308 308 308 308 309 309 310 310 310 310 310 310 310 309 309 309 308 306 304 303 303 304 305 306 306 306 306 307 309 311 313 313 313 312 312 312 312 313 313 314 314 314 313 313 313 313 313 313 313 313 313 313 312 313 314 315 317 318 319 321 322 322 322 322 323 325 327 328 329 330 329
306 305 305 306 307 307 307 307 308 307 307 307 307 307 307 308 308 308 308 309 309 309 309 309 310 310 309 309 310 309 307 305 304 303 303 303 304 304 304 305 305 306 308 310 311 311 310 310 311 311 312 312 313 313 313 313 314 314 314 314 314 314 314 313 313 312 312 313 314 315 315 316 317 318 319 320 320 321 321 322 323 325 326 326 327
305 305 305 305 306 306 307 307 307 307 306 307 307 307 307 307 308 308 308 309 309 309 309 309 310 309 309 309 310 309 307 306 304 303 303 303 303 304 305 305 305 306 308 309 310 310 310 311 311 311 311 311 311 311 311 311 312 312 312 312 313 314 314 313 313 312 313 313 314 315 315 316 316 317 318 319 320 321 321 322 322 322 323 323 324
305 305 305 305 305 306 306 306 306 306 306 306 306 306 306 306 307 307 308 308 308 308 309 309 309 309 309 309 310 309 308 307 305 303 303 303 303 304 305 305 306 307 308 309 309 309 309 310 310 310 310 309 309 308 308 308 308 308 309 310 311 312 312 312 312 312 313 314 315 315 316 317 317 318 318 319 319 320 321 321 322 322 322 322 322
305 305 305 306 305 305 305 305 305 305 306 306 306 306 305 304 305 306 307 307 307 307 307 308 308 308 308 308 308 308 306 305 303 302 302 302 303 304 305 305 305 307 308 309 309 308 308 308 308 309 309 309 308 308 308 307 307 307 307 307 308 308 309 310 310 310 311 312 312 313 314 315 315 316 316 317 318 318 319 319 319 320 320 320 320
306 305 305 306 306 305 305 306 306 305 305 305 306 306 304 303 303 304 305 306 307 307 307 307 307 307 307 307 307 306 304 303 301 301 301 301 302 303 305 306 306 308 309 308 308 308 308 308 308 308 308 309 309 308 308 308 307 307 307 307 306 306 306 307 308 307 307 307 308 309 310 311 312 313 314 315 315 316 316 316 316 317 318 318 319
306 306 306 306 307 306 304 305 305 304 302 302 304 304 304 301 300 301 303 304 306 307 307 307 307 306 306 306 305 305 304 302 300 300 300 301 302 303 304 306 307 307 307 306 306 308 309 309 309 309 309 309 309 309 309 309 308 307 306 306 306 305 305 305 305 305 305 305 306 306 307 308 310 310 310 311 311 311 312 313 313 314 316 317 318
304 305 306 306 306 306 305 305 305 303 300 299 299 301 303 301 298 298 299 301 303 304 306 306 306 305 304 304 304 304 302 301 300 300 300 301 302 303 304 305 305 305 305 305 307 308 309 309 309 308 308 308 308 308 308 308 307 306 305 304 304 305 304 304 304 304 304 304 305 305 305 307 308 307 307 308 307 307 309 309 310 311 313 313 315
304 305 307 307 306 306 306 305 305 305 302 299 297 297 298 299 297 295 296 298 299 301 302 304 305 305 303 301 302 302 301 300 299 300 300 301 302 303 303 304 304 304 304 306 308 309 308 308 307 306 306 306 305 305 305 305 305 305 305 304 303 303 303 303 304 304 303 303 304 303 303 305 305 305 305 306 305 305 306 306 306 308 309 310 312
306 306 307 306 304 305 307 306 306 306 304 303 301 298 296 297 297 295 295 295 296 298 299 301 303 304 303 300 299 300 300 300 299 299 300 301 302 302 303 304 304 304 305 306 307 307 306 306 305 304 304 304 304 304 304 304 304 304 304 304 303 303 302 302 303 304 303 303 303 303 302 303 304 303 303 303 303 304 304 304 304 305 306 306 308
307 307 307 305 302 303 305 306 306 306 306 305 304 302 299 298 299 298 297 296 294 294 296 297 298 300 301 300 299 299 298 299 299 299 300 301 301 302 303 303 304 304 304 305 305 305 305 304 304 304 304 304 304 303 303 303 303 302 303 303 303 302 302 302 302 303 303 303 303 303 302 303 303 303 303 303 303 303 303 303 303 303 303 303 304
308 307 307 305 302 301 303 305 305 305 305 305 306 304 302 301 300 300 300 299 297 294 293 294 295 296 297 298 298 298 298 297 297 298 300 301 302 302 302 302 303 304 304 304 304 304 304 304 304 304 303 303 303 303 303 303 302 301 301 302 302 302 301 301 301 301 302 302 303 302 301 302 303 303 302 302 303 303 303 303 303 303 302 302 302
308 308 308 307 304 303 304 305 305 305 305 305 305 305 305 304 303 301 301 301 300 297 294 294 294 294 294 295 296 295 295 295 296 297 300 301 302 302 302 302 303 303 303 304 304 303 303 303 303 303 302 302 302 302 302 302 302 301 301 301 302 302 301 300 300 300 300 301 302 301 301 301 302 302 301 302 302 302 302 302 303 302 302 302 301
307 307 307 308 307 307 306 306 306 306 305 304 303 303 303 304 305 305 303 302 301 300 298 297 296 295 293 293 293 294 294 295 296 298 300 301 301 302 303 304 304 304 303 303 303 303 303 302 302 302 302 301 301 301 301 300 300 301 300 299 301 302 301 299 300 300 300 300 300 300 300 300 300 301 301 301 301 301 301 302 302 302 302 302 301
307 306 306 305 305 307 308 307 306 305 304 303 303 303 302 302 303 304 304 304 304 303 301 300 299 299 296 294 295 296 297 298 299 300 301 301 302 302 303 304 305 304 303 302 302 303 302 302 302 301 301 301 300 300 300 300 299 300 299 299 299 300 299 298 300 300 299 298 298 298 298 298 299 299 300 300 300 300 300 300 300 301 301 301 301
307 306 306 304 301 303 306 307 306 305 305 304 304 303 302 303 303 303 303 303 304 305 305 303 302 301 300 298 298 299 300 300 301 301 301 301 302 302 303 303 303 303 303 302 302 303 302 302 302 301 301 301 300 300 299 299 299 299 298 298 299 299 297 297 299 300 299 297 296 296 297 297 297 297 298 298 298 299 299 299 299 300 300 300 300
306 306 306 304 301 302 305 307 306 306 305 305 303 303 302 302 303 304 304 303 302 303 306 305 303 303 302 302 301 301 301 301 301 302 302 302 302 303 303 303 302 302 302 302 302 302 302 302 302 301 301 301 300 300 299 299 298 298 298 298 298 298 297 296 298 299 298 296 295 295 296 296 296 295 295 296 297 298 298 298 298 299 299 299 299
307 307 307 307 305 305 307 307 306 305 304 302 302 303 304 304 303 303 304 303 303 304 305 305 304 304 304 303 302 301 301 301 302 303 303 303 303 304 303 303 303 302 302 302 302 302 302 302 301 301 301 301 301 300 299 299 298 298 298 297 297 297 297 296 296 297 297 296 294 294 294 295 294 293 293 294 296 297 297 297 297 298 298 298 299
307 307 307 307 306 306 307 306 305 303 301 300 301 303 304 304 303 303 304 304 305 305 306 305 305 305 305 303 302 302 302 302 302 303 304 304 303 304 303 303 303 303 303 303 302 302 302 302 301 301 301 301 300 300 300 299 299 298 298 297 297 297 296 296 295 296 296 295 294 293 294 294 292 292 292 294 295 296 296 296 297 297 297 298 298
307 307 306 305 305 305 306 306 306 304 302 301 303 304 304 303 303 304 305 305 306 306 305 305 306 305 304 303 303 303 303 303 302 303 304 304 303 303 304 303 303 303 303 303 303 303 302 302 302 301 301 301 301 300 300 300 299 299 298 298 297 296 296 296 295 295 295 294 294 294 293 292 291 291 292 294 294 294 295 296 296 296 296 297 298
307 307 306 305 303 302 303 304 305 305 304 304 304 305 304 303 304 304 305 305 306 306 305 305 305 305 304 304 303 303 303 303 303 303 303 304 303 303 303 303 303 303 303 303 303 302 302 302 302 302 301 301 301 301 300 300 300 300 299 298 298 297 296 296 295 294 294 294 294 294 293 291 291 291 293 293 293 294 295 295 295 295 295 296 297
307 307 307 305 302 300 301 302 303 304 305 304 304 304 304 304 304 305 305 305 305 305 305 305 305 305 304 304 303 303 303 303 304 304 304 304 303 303 303 303 303 303 303 303 302 302 302 302 302 302 301 301 301 301 300 300 300 300 299 299 299 298 297 296 295 294 294 294 294 293 292 291 291 292 293 293 293 293 294 294 294 294 295 296 296
307 307 306 305 303 301 301 302 302 303 304 304 305 305 305 305 305 305 305 305 305 305 305 305 305 305 304 304 304 304 303 303 304 304 304 303 303 303 303 303 302 302 302 302 302 302 302 302 302 302 301 301 301 301 300 300 300 300 299 299 299 298 298 297 296 295 294 294 294 293 291 291 291 292 292 291 292 293 293 293 292 293 294 295 295
306 307 306 305 304 303 301 302 303 304 304 304 305 305 305 305 305 306 305 306 306 305 306 306 305 305 304 304 304 304 304 304 304 304 303 303 303 302 302 302 302 301 301 301 301 301 301 301 301 301 301 301 301 301 300 300 300 300 299 299 299 298 298 298 297 296 295 294 293 293 292 291 291 291 291 291 291 291 291 291 292 293 294 294 294
306 306 306 306 306 304 303 302 303 304 304 304 305 305 305 305 306 306 306 306 306 306 306 305 305 305 304 304 304 304 304 304 304 304 303 302 302 302 301 301 301 301 300 300 300 300 300 300 300 300 300 301 301 300 300 300 300 299 299 299 299 299 298 298 297 296 296 295 293 293 292 291 291 291 291 290 290 290 290 291 292 293 293 292 293
306 306 306 306 306 305 305 304 304 303 304 304 304 305 305 306 306 306 306 306 306 306 306 305 305 305 304 304 304 304 304 304 303 303 303 302 302 302 301 301 301 300 300 300 299 299 299 299 299 299 299 300 300 300 300 300 299 299 299 299 299 299 299 298 297 297 296 295 293 293 293 292 292 291 290 289 289 290 291 291 292 292 292 291 292
306 306 306 306 306 305 305 304 304 304 304 304 304 305 305 306 306 306 306 306 306 306 306 305 305 305 305 304 304 304 304 303 303 303 303 302 302 302 301 301 301 300 300 300 299 299 299 299 298 298 299 299 299 299 299 299 299 299 299 299 298 298 298 298 297 296 295 294 293 293 293 293 292 291 290 289 289 290 290 290 290 291 291 291 292
306 306 306 306 306 306 305 304 304 304 304 304 304 304 305 306 306 306 306 305 305 306 305 305 305 305 305 305 305 305 304 304 303 303 302 302 302 302 301 301 300 300 300 299 299 299 298 298 298 298 298 298 298 297 297 297 297 297 297 297 297 297 297 297 296 295 294 293 293 293 292 292 292 291 290 289 289 289 289 289 289 290 290 291 292
306 306 306 306 306 306 306 305 304 304 304 304 304 304 305 305 305 305 305 304 305 305 305 305 305 305 305 305 305 305 304 303 303 302 302 302 302 302 301 301 300 300 299 299 299 299 298 297 297 298 298 297 297 296 296 296 296 297 297 297 296 296 295 295 295 294 294 293 293 292 292 291 291 291 290 290 289 289 288 289 289 289 290 290 291
307 306 306 306 306 306 306 305 304 304 305 304 304 304 305 305 305 304 304 304 304 305 305 305 305 305 305 305 305 304 304 303 303 303 302 302 302 301 301 301 300 300 299 299 299 298 298 297 297 297 297 296 296 296 295 295 296 296 296 295 295 295 294 294 293 293 293 292 292 291 291 291 291 291 291 290 289 288 288 288 289 289 289 289 290
308 307 306 306 306 306 306 305 305 306 306 306 305 305 305 304 304 304 304 304 304 305 305 305 305 305 305 304 304 303 303 303 303 303 302 302 301 301 300 300 300 300 299 299 298 298 298 297 297 297 296 296 296 295 295 295 295 295 294 294 294 293 293 292 292 292 292 291 291 291 290 290 290 290 290 290 289 289 288 288 288 288 289 289 289
Wind_Speed
14 14 13 12 13 14 14 14 14 14 13 13 12 11 11 11 11 12 12 12 11 10 9 8 8 8 9 11 9 5 3 2 1 3 5 3 3 3 5 6 5 5 5 7 11 13 17 27 30 24 19 19 17 17 20 20 19 20 19 18 17 16 16 15 10 8 13 16 15 13 12 11 12 18 21 22 23 22 24 24 23 22 22 21 20
12 13 13 13 12 13 14 13 13 14 14 13 12 11 10 10 10 10 10 11 11 11 10 10 10 9 10 11 9 6 5 4 2 2 3 4 4 5 7 8 8 7 6 8 10 11 12 20 25 20 17 19 17 16 17 17 17 19 19 19 20 19 17 16 14 11 12 16 16 17 17 16 15 15 17 22 25 24 24 25 24 23 22 22 22
11 12 13 13 12 12 12 12 13 14 14 13 12 12 11 10 9 9 9 10 10 10 11 11 11 11 11 10 8 6 5 5 4 4 3 3 5 7 9 10 9 8 9 9 11 14 13 12 16 15 16 18 17 16 15 15 15 15 15 15 16 18 18 18 17 14 13 14 15 16 16 17 18 18 17 17 20 24 26 26 24 23 23 23 23
10 11 12 13 13 12 11 12 12 14 14 14 14 13 12 10 9 9 8 9 9 10 11 11 10 10 10 11 10 8 5 4 5 6 4 3 3 4 6 9 9 9 12 13 13 14 14 13 14 16 17 16 12 10 11 11 11 13 13 12 13 16 17 17 16 14 11 10 11 12 12 14 16 17 17 17 16 19 25 27 25 23 22 22 23
10 11 12 12 12 11 12 12 13 14 14 15 15 13 12 11 9 8 8 8 9 10 11 11 10 11 11 11 12 11 7 4 5 6 6 5 4 4 3 5 7 9 12 14 14 14 13 15 17 14 11 10 8 7 7 8 9 12 14 13 13 14 16 16 17 17 12 8 11 13 13 14 14 13 14 17 17 18 21 24 24 22 22 22 22
10 11 11 11 11 11 12 13 14 14 14 15 16 14 12 12 11 9 8 8 9 10 11 11 10 11 11 11 11 11 8 5 6 7 8 8 6 6 5 4 6 7 9 12 14 14 12 14 18 15 7 7 8 7 8 9 10 13 13 12 12 12 12 12 16 19 15 10 11 14 14 13 15 17 15 14 15 16 20 22 22 22 22 23 23
10 11 10 10 11 10 11 13 14 14 13 14 16 14 13 12 12 11 11 10 10 11 11 11 11 11 11 11 10 11 9 5 4 4 6 8 8 7 8 8 8 7 8 11 13 13 11 12 16 16 8 5 7 8 8 9 11 12 11 10 10 10 11 13 15 17 15 11 11 12 13 13 14 16 17 16 19 18 17 18 18 20 23 25 25
9 11 11 10 10 10 11 13 13 12 13 13 14 13 12 12 12 12 12 12 11 11 11 11 11 11 10 10 10 9 7 5 3 3 3 4 5 6 8 9 9 9 10 11 11 11 11 11 14 14 9 5 7 7 8 9 11 12 11 9 6 6 9 12 14 14 12 12 13 11 10 13 15 16 16 16 18 20 17 15 15 17 19 22 25
9 10 11 11 10 10 10 12 13 13 13 12 12 13 13 13 13 13 12 12 12 12 11 11 12 13 12 11 9 6 4 5 5 6 6 5 4 3 5 7 8 10 10 10 9 9 10 11 12 12 8 6 7 7 7 8 9 10 10 9 7 6 6 8 10 11 10 11 12 10 9 12 14 15 16 16 18 20 19 16 18 19 18 17 18
9 10 11 11 11 10 10 11 12 12 12 11 12 14 13 12 13 12 11 11 11 12 12 11 11 13 12 8 3 3 4 6 6 6 7 7 6 5 5 5 6 7 8 10 10 8 8 10 11 11 9 9 10 8 7 8 9 11 10 10 11 9 8 7 8 9 11 12 11 9 9 12 14 15 16 17 17 19 19 19 19 19 17 17 15
9 10 10 11 12 11 10 11 12 12 11 11 12 12 11 11 12 11 11 11 11 12 11 11 12 13 12 8 6 7 8 8 8 7 6 7 8 7 7 7 7 7 7 7 9 9 9 11 12 12 10 9 8 7 6 8 9 10 11 11 12 12 12 12 12 11 11 12 11 10 10 13 15 13 15 17 17 18 21 20 19 16 13 13 15
10 10 10 10 11 10 10 11 10 10 10 10 11 10 10 11 11 10 10 10 10 11 11 11 11 12 12 11 10 11 11 10 9 9 8 7 7 7 7 7 8 9 8 7 7 7 8 10 12 12 11 11 10 9 9 9 9 9 9 9 11 13 15 16 16 16 16 14 13 13 14 16 16 13 14 15 16 18 19 18 16 14 11 10 15
11 11 10 9 9 10 11 11 9 9 9 9 9 9 10 10 10 9 9 9 9 9 10 10 11 11 12 12 12 12 12 11 11 10 10 9 9 9 8 7 7 9 10 8 7 7 9 10 11 10 10 11 12 10 8 9 11 11 10 10 12 14 15 16 17 18 18 18 17 18 19 18 15 12 11 12 13 15 16 16 14 11 11 14 18
13 11 9 8 9 9 11 11 9 8 9 9 9 10 9 8 8 9 9 9 9 9 9 10 10 10 11 12 12 13 14 14 13 12 11 11 11 10 9 7 5 7 8 8 8 9 11 11 11 11 8 4 3 4 5 6 8 9 8 9 11 12 13 14 15 16 18 19 21 23 24 22 19 17 14 13 14 14 15 16 15 12 14 18 20
13 10 8 7 7 8 9 10 10 9 9 9 10 9 9 8 8 7 7 7 8 8 8 9 10 10 10 11 12 14 16 16 16 15 14 13 12 10 7 6 6 6 6 7 7 8 10 10 10 9 5 3 4 4 3 4 5 6 6 8 10 12 13 14 14 15 17 18 20 22 22 21 21 22 20 17 17 18 18 17 16 16 18 20 22
10 9 8 7 6 7 8 9 10 9 9 9 9 9 10 10 8 7 6 6 7 7 7 8 9 9 10 10 10 14 17 18 19 18 15 13 11 7 4 6 7 7 5 5 7 8 9 10 9 6 4 4 6 7 7 6 4 4 6 8 11 13 15 15 15 15 15 16 18 19 20 19 19 20 19 17 17 20 21 20 19 20 20 20 21
8 7 7 7 7 6 7 8 8 9 9 9 9 10 10 10 9 9 7 5 7 7 6 6 8 8 9 9 9 12 16 18 20 20 16 12 8 4 4 8 9 7 7 5 4 4 5 6 6 5 5 6 7 7 8 8 8 8 8 9 10 12 13 14 14 12 11 10 11 14 17 18 19 21 21 20 19 20 21 19 18 18 17 15 16
6 6 6 6 6 6 6 7 7 8 8 8 9 10 9 9 9 10 8 6 7 7 6 6 7 7 8 9 8 10 13 15 19 21 18 13 9 6 8 11 10 8 8 8 6 5 5 5 6 7 7 6 6 7 8 9 9 9 9 10 12 12 13 13 14 15 15 13 11 11 12 13 15 17 19 20 19 20 23 22 21 20 18 16 17
6 6 4 4 4 6 6 7 8 8 8 8 7 8 8 7 7 8 7 6 7 7 6 5 6 6 7 7 8 8 10 13 17 20 18 14 10 8 10 11 9 8 8 9 9 7 5 6 9 11 11 10 9 9 9 9 9 9 10 10 10 11 12 14 16 19 21 21 20 19 18 18 18 17 17 16 15 16 19 22 23 24 22 20 21
6 6 5 5 6 6 7 7 7 7 7 7 7 7 7 7 7 7 6 6 5 5 5 4 4 5 4 5 7 6 7 11 15 17 17 15 11 9 9 10 9 9 9 9 9 9 9 9 12 13 13 13 12 12 11 11 11 10 9 8 7 10 13 16 18 20 22 24 23 22 21 20 20 18 17 16 15 15 17 18 21 24 25 24 23
5 6 6 5 9 8 7 6 5 4 4 6 6 6 6 6 6 6 5 5 4 3 4 4 4 4 3 3 4 3 5 11 15 15 14 15 13 10 10 10 9 8 9 10 10 11 12 13 15 15 13 13 12 11 11 10 9 9 9 8 10 14 16 17 18 18 19 21 21 20 19 18 18 18 17 17 17 17 18 16 15 17 20 22 21
4 5 6 6 8 7 4 2 2 3 5 5 5 6 5 4 6 6 4 3 3 3 3 3 3 4 3 2 3 3 6 12 16 15 14 14 15 14 13 12 10 8 9 10 11 12 13 13 14 13 12 11 11 10 10 9 8 8 9 10 12 14 15 15 16 15 14 14 14 15 16 16 17 18 18 18 19 19 20 20 18 17 18 20 20
4 5 6 7 6 5 3 1 1 2 4 5 6 7 7 6 5 5 3 2 2 4 4 4 4 4 3 4 5 5 8 13 16 17 14 14 15 14 13 13 12 10 9 9 9 11 11 12 12 12 12 13 14 15 15 14 13 12 11 11 11 11 10 10 12 12 12 12 13 13 13 13 14 15 16 16 17 18 19 20 20 20 21 21 22
4 4 4 5 7 5 3 5 6 4 4 6 7 8 9 10 9 7 5 5 5 5 6 5 5 5 6 6 7 7 8 11 15 16 14 12 13 13 11 11 11 10 9 8 8 9 10 11 13 13 14 15 16 17 18 18 16 15 15 14 11 10 10 8 9 10 10 10 11 11 11 12 13 13 15 16 17 18 18 18 19 19 19 20 21
2 3 2 4 5 6 3 5 6 7 7 8 9 9 9 10 12 13 11 9 9 8 8 7 7 7 7 8 10 12 12 12 14 15 12 10 10 11 11 10 8 7 7 7 7 7 8 9 11 13 15 15 16 16 16 18 18 17 17 18 16 15 14 10 9 10 10 11 11 11 12 14 14 15 17 18 18 18 18 18 19 20 21 21 22
1 2 3 2 5 5 6 4 6 7 10 10 9 10 10 10 10 12 13 12 11 9 8 9 10 9 9 11 13 14 14 14 15 16 15 12 10 10 11 11 9 7 7 8 8 7 6 5 5 8 10 12 15 16 14 16 18 18 17 18 19 20 19 15 13 14 14 13 14 14 14 14 14 15 16 16 15 16 17 17 18 19 20 20 20
1 2 3 1 4 4 3 4 3 7 10 10 9 9 10 11 11 11 11 11 11 10 10 11 12 11 11 12 13 12 12 15 16 18 18 17 14 12 12 13 12 9 8 10 9 6 5 4 3 5 6 5 9 13 13 13 16 17 17 17 17 19 19 17 16 16 16 14 14 16 16 15 15 16 16 15 16 17 17 17 17 17 18 19 18
2 2 2 1 2 2 2 3 3 7 11 10 9 9 9 10 11 12 11 10 9 9 9 9 11 11 11 11 11 11 11 13 16 18 18 19 18 16 15 15 14 12 13 14 10 5 3 4 6 9 10 9 10 14 15 15 16 16 17 18 17 17 17 17 16 17 17 16 15 16 17 16 16 17 17 16 17 18 18 18 17 17 17 17 16
2 5 4 2 1 1 2 2 2 6 11 11 12 12 10 10 10 11 11 11 10 9 9 8 8 10 11 10 9 9 9 11 14 15 16 17 18 17 16 16 16 17 18 17 13 11 10 10 12 15 17 16 16 16 16 16 16 15 16 17 18 18 18 18 17 16 17 18 16 17 18 16 15 17 16 16 18 18 17 18 18 17 17 17 15
6 7 5 2 2 1 1 2 2 4 8 10 11 12 13 12 12 12 12 11 10 10 10 9 8 8 8 8 9 8 8 8 10 13 15 16 16 16 16 16 17 18 18 16 14 14 14 14 15 15 16 16 15 15 15 15 15 15 15 15 17 18 18 18 18 16 16 17 16 17 18 16 15 17 17 17 19 19 17 18 18 17 17 18 16
9 8 5 7 4 2 2 1 1 1 5 9 10 11 11 10 10 10 11 11 11 11 9 8 8 7 6 6 8 8 7 7 8 9 12 13 14 15 15 15 14 14 14 15 15 14 14 14 13 13 12 13 13 13 14 14 14 15 15 14 15 16 17 18 18 16 16 16 15 16 18 17 16 17 18 18 19 18 17 18 18 17 17 17 16
9 5 5 10 6 2 2 1 1 1 1 5 9 11 12 10 8 6 7 8 10 11 10 9 8 8 7 6 6 6 6 6 6 6 7 8 10 11 12 13 14 13 12 12 14 13 13 12 12 12 12 12 12 12 12 13 13 14 14 14 14 14 15 17 17 15 15 15 15 16 18 17 16 17 18 18 18 18 18 18 18 17 17 17 16
7 4 3 5 4 4 3 3 3 3 2 1 3 7 10 11 9 7 5 5 7 9 10 10 9 8 8 6 6 6 7 8 8 7 6 6 7 8 7 7 10 13 12 11 12 12 12 11 11 11 12 12 12 12 12 12 12 12 13 13 12 12 13 15 15 15 15 15 14 15 17 17 16 17 18 18 18 18 18 18 18 17 17 17 17
6 4 1 1 2 3 4 4 3 2 2 1 1 1 5 5 5 7 8 7 6 6 6 7 8 9 9 9 9 9 10 11 12 10 9 8 10 12 10 5 4 8 11 11 10 10 10 11 11 11 11 11 11 11 12 12 12 12 12 13 12 11 12 14 15 14 15 15 15 16 17 17 16 17 17 18 18 18 18 18 18 18 18 18 19
7 7 6 6 6 5 3 2 2 2 2 3 3 2 4 3 2 4 6 7 8 9 8 5 5 7 9 9 9 9 9 10 11 11 11 11 11 13 12 9 7 8 10 11 11 10 10 11 11 11 11 11 12 12 12 12 12 12 12 13 13 12 13 15 14 13 14 15 16 16 16 16 17 17 17 17 18 18 18 18 19 19 19 19 20
7 8 8 7 6 7 7 4 2 2 2 2 2 2 4 2 2 2 4 3 4 7 10 8 4 3 6 8 8 8 7 7 6 7 9 10 10 11 11 11 10 10 10 11 11 10 10 10 11 11 11 11 11 12 13 13 13 13 13 13 12 12 15 16 14 12 14 15 16 16 16 16 16 17 17 18 18 17 17 18 19 19 19 20 21
8 8 8 8 8 8 7 4 2 2 1 1 1 1 3 3 2 2 2 2 3 0 7 10 7 4 3 6 8 10 11 11 10 7 5 4 6 8 8 8 9 10 10 10 10 10 10 10 10 10 11 10 11 11 12 12 12 12 12 12 12 12 14 15 13 12 13 15 16 16 16 16 16 17 18 18 18 18 17 19 19 19 19 20 20
9 7 6 8 9 8 6 5 4 4 3 3 4 5 4 4 3 3 2 3 2 2 3 6 7 7 7 5 6 8 11 12 12 10 6 3 4 7 7 7 8 9 9 9 9 9 10 10 10 11 10 9 10 10 11 11 12 12 12 12 12 11 12 13 13 12 12 14 16 17 16 15 17 18 18 18 18 18 18 19 19 19 21 20 19
11 9 7 6 7 6 5 4 5 6 5 6 8 7 4 3 4 4 4 4 5 4 3 2 3 6 10 8 5 5 7 9 10 9 4 3 4 4 4 6 8 8 7 7 8 9 10 10 11 11 11 10 10 10 11 11 11 12 12 12 11 11 11 12 12 12 12 14 16 16 16 16 19 19 18 16 17 18 19 20 20 20 21 21 20
12 12 12 10 9 8 7 5 5 6 7 8 9 8 5 5 5 5 5 4 4 3 3 4 3 4 10 9 6 7 7 6 7 7 4 2 3 4 1 5 6 6 4 3 4 6 7 7 7 9 10 9 9 10 11 11 12 12 13 12 11 11 12 12 12 12 12 14 15 15 15 17 20 20 18 16 17 18 19 19 20 20 20 21 21
12 13 14 13 12 10 10 8 7 7 8 8 8 7 7 7 6 5 4 4 3 2 4 6 2 6 11 8 5 9 8 5 5 5 5 6 6 5 4 7 7 7 6 5 5 5 5 5 5 7 7 7 8 9 10 10 11 11 12 12 12 13 12 12 12 13 13 14 14 14 16 19 20 18 17 17 18 19 19 19 20 21 21 20 20
12 13 16 16 14 12 11 11 10 9 8 8 8 8 7 7 7 7 6 5 3 3 5 6 1 7 9 5 4 7 6 5 4 6 9 8 7 10 10 9 9 9 9 8 8 8 7 6 6 7 7 7 9 9 9 10 10 10 11 11 11 11 12 12 14 14 13 12 13 16 18 19 18 16 16 18 18 18 19 19 20 21 21 20 20
11 13 16 17 15 13 12 12 12 11 10 9 9 9 8 7 8 8 8 6 5 6 7 6 2 6 7 4 2 3 3 3 5 8 10 9 9 10 10 11 13 13 13 12 12 12 11 9 9 9 9 9 10 10 11 11 12 12 12 12 11 11 11 12 13 12 10 11 14 17 18 18 17 16 17 18 18 18 19 20 21 21 20 21 22
12 13 16 16 15 14 13 13 12 12 12 12 11 10 9 8 8 8 7 7 7 7 7 6 4 6 8 6 3 2 2 4 7 7 6 6 7 6 7 9 12 13 14 15 16 16 15 14 14 13 12 12 12 12 12 13 14 14 15 16 16 16 15 12 10 9 11 12 14 16 17 16 17 18 18 18 18 19 20 20 20 20 21 22 22
14 14 14 15 16 15 15 14 14 13 13 13 12 11 10 10 10 10 10 10 8 6 6 6 6 4 6 7 7 6 6 6 6 6 5 7 9 9 7 5 6 9 11 11 12 14 16 16 15 15 15 15 14 14 14 14 15 16 17 18 18 19 19 16 13 11 12 12 13 14 15 16 17 19 20 20 21 21 21 20 20 20 21 23 23
16 15 15 15 15 16 15 15 15 15 14 13 13 13 13 13 13 12 11 9 7 7 8 8 7 7 6 6 7 8 7 6 5 5 4 5 7 8 8 7 6 6 7 9 10 12 13 14 14 15 16 16 17 16 16 16 16 16 16 17 18 19 20 19 15 12 12 12 12 13 14 16 18 20 21 22 22 21 20 20 21 21 22 23 23
17 17 16 16 15 16 16 16 16 15 15 14 14 13 13 14 15 16 15 14 13 13 12 9 7 8 7 6 5 6 7 5 4 4 4 4 5 6 7 8 8 7 7 8 10 10 10 12 14 14 14 15 16 17 17 19 20 19 17 16 15 15 16 17 14 11 9 10 11 14 17 19 20 20 20 20 21 21 22 22 23 24 23 23 23
18 18 18 17 17 16 16 16 16 15 14 15 14 14 14 15 14 12 11 11 14 16 16 12 9 9 10 9 8 8 8 7 5 4 4 5 6 6 6 8 8 7 6 8 9 9 10 11 12 12 12 14 15 16 17 18 19 20 18 16 14 14 15 15 12 8 8 10 14 18 19 19 19 19 19 19 21 23 24 24 25 25 24 23 23
20 19 18 18 18 17 16 15 15 16 16 16 15 14 15 14 11 6 4 6 9 11 12 12 12 12 12 10 9 8 7 5 4 3 4 6 7 7 7 7 7 6 7 8 9 9 10 12 13 13 13 13 12 13 15 15 15 16 19 20 19 20 20 18 15 13 14 16 19 20 20 20 20 20 20 21 22 23 24 24 24 24 24 24 24
22 20 19 18 18 17 16 16 16 17 18 19 20 19 16 12 7 5 7 11 13 14 14 14 14 13 10 6 4 4 2 2 3 4 5 6 7 8 8 8 8 8 9 9 9 10 12 14 14 13 11 10 11 14 16 15 12 11 14 16 17 18 18 16 15 16 17 18 20 21 22 23 23 22 22 22 22 22 23 23 23 24 24 24 25
25 23 21 20 19 18 17 17 17 17 15 14 15 16 14 10 7 6 8 12 15 17 18 16 13 9 5 2 1 1 1 1 3 4 5 6 7 7 8 8 9 10 11 11 11 12 14 14 14 13 12 14 15 15 14 11 9 9 11 13 14 14 14 14 14 16 17 18 20 22 23 24 24 23 23 23 22 23 24 24 24 25 25 24 24
Wind_Direction
348 344 343 342 336 333 334 332 331 330 328 327 322 318 316 316 317 319 320 318 314 308 300 301 315 314 309 316 316 301 284 286 297 284 286 272 217 240 283 284 264 244 259 295 312 311 282 255 243 234 227 224 225 232 234 234 237 238 240 242 245 253 257 254 250 254 257 255 258 259 252 248 231 208 204 211 217 221 224 228 231 230 233 240 240
346 345 342 339 336 334 335 334 334 335 332 329 325 319 316 315 314 313 315 316 314 312 303 293 299 306 304 305 309 308 294 283 279 256 264 275 255 247 265 276 272 255 267 300 307 316 298 257 242 237 232 231 235 237 234 235 236 237 239 240 242 247 251 252 248 244 250 252 255 257 255 258 259 243 222 215 217 219 217 218 223 226 233 239 241
349 343 338 338 339 336 338 339 339 339 335 331 328 326 324 321 319 316 315 318 317 315 315 307 298 299 304 299 290 296 308 298 278 259 242 261 273 274 272 276 282 270 267 284 293 305 308 268 241 238 235 235 241 245 245 247 249 250 252 254 257 257 258 262 260 253 250 248 245 248 248 247 252 257 253 239 228 220 215 213 214 220 228 235 240
358 344 338 343 343 339 342 342 343 343 338 334 333 334 333 330 329 328 322 324 325 321 323 322 312 306 303 298 290 287 304 324 295 269 255 242 252 289 290 278 278 273 266 271 278 289 296 279 252 239 233 237 244 250 253 254 259 266 269 279 294 295 296 297 291 281 281 284 272 262 263 260 251 249 252 253 245 227 218 214 213 216 223 228 235
4 347 341 346 344 344 348 344 343 343 337 337 341 342 341 339 338 340 338 337 335 332 331 327 325 320 307 298 293 285 282 299 295 272 261 257 244 247 277 275 269 267 264 265 270 274 281 281 269 251 235 245 260 273 274 262 260 264 266 275 288 296 305 311 302 286 277 288 291 284 292 301 293 276 258 249 244 231 220 217 216 218 223 226 230
5 351 345 349 345 348 353 347 343 342 338 341 347 348 347 347 349 349 352 354 350 348 345 339 334 326 314 307 299 292 286 277 279 277 271 273 265 246 248 259 262 259 253 253 261 267 275 281 278 270 253 251 265 283 285 271 266 267 267 271 273 276 281 287 291 285 270 257 263 263 268 285 295 294 288 281 271 245 226 224 225 223 225 226 226
14 358 350 352 348 352 353 344 341 340 339 343 348 352 352 353 357 357 358 2 0 357 351 343 337 331 322 317 313 314 318 305 284 290 283 282 280 261 249 248 252 251 247 247 251 259 272 282 279 274 267 261 265 269 273 275 279 281 279 281 282 276 268 264 270 277 273 265 265 265 264 268 275 279 280 289 299 286 257 245 242 235 230 229 226
19 4 356 354 352 353 347 342 341 339 338 342 349 355 357 358 1 2 4 6 4 360 353 345 340 336 328 320 318 322 330 330 322 326 326 312 298 274 254 249 255 255 250 249 245 246 259 270 273 272 270 270 268 263 269 280 286 284 277 279 291 280 261 258 260 267 271 267 263 266 272 273 275 279 274 267 274 281 281 281 279 265 245 233 229
15 12 3 355 350 349 347 345 340 337 340 346 354 360 0 3 6 8 11 11 7 0 356 354 347 339 333 326 321 321 330 344 340 328 329 341 350 322 275 263 266 264 258 255 249 244 249 253 260 267 269 275 278 276 279 281 283 281 270 262 268 267 257 259 263 269 271 263 259 259 260 262 265 272 274 259 249 256 267 280 285 280 272 258 240
22 27 11 355 347 347 347 344 340 342 347 351 0 2 1 7 12 14 19 16 10 5 360 359 358 355 352 346 341 1 4 7 3 342 325 321 325 326 309 292 280 275 272 264 255 249 248 250 256 261 264 275 280 280 287 288 283 281 273 264 263 262 263 265 265 270 269 261 260 258 252 257 256 253 257 258 255 256 262 268 271 273 278 278 263
33 33 18 1 349 348 350 346 344 349 352 355 0 360 1 11 13 11 16 18 15 11 9 11 18 27 36 44 49 36 21 15 6 350 337 321 308 302 302 300 290 288 292 281 265 256 252 256 261 259 259 266 270 274 290 296 294 289 279 272 267 260 260 258 253 257 261 258 257 253 248 256 258 251 253 261 265 265 265 267 271 278 287 292 288
46 32 24 9 354 354 350 343 344 349 352 354 354 356 6 14 11 7 12 19 19 16 17 24 28 33 41 43 37 29 17 7 359 349 343 336 322 312 306 300 289 285 293 303 296 280 273 272 268 258 252 253 257 267 275 274 280 289 287 281 276 271 266 261 255 254 254 256 259 255 251 256 260 257 259 265 268 268 266 264 267 278 281 271 274
56 38 29 13 358 358 346 337 343 347 348 349 351 4 15 14 12 9 10 20 27 24 25 32 32 28 30 33 30 22 10 360 353 345 338 332 326 321 315 306 287 274 279 297 312 311 313 312 300 282 267 255 252 260 268 261 260 269 275 278 279 279 276 270 266 262 259 257 257 257 258 262 266 267 271 277 270 261 264 271 274 273 263 254 257
59 45 33 16 3 2 350 346 352 350 352 359 4 13 18 19 19 12 10 22 30 32 33 33 33 28 23 26 27 21 13 4 355 346 339 332 326 320 319 319 301 274 272 288 307 314 315 317 318 316 312 294 263 261 262 254 251 256 266 275 281 285 287 284 279 275 269 262 257 259 263 266 268 271 278 287 278 265 270 281 284 278 271 272 273
55 38 26 19 10 5 357 355 354 352 360 7 10 13 15 22 28 15 13 27 28 32 42 39 36 33 21 19 23 19 14 9 1 350 337 329 324 320 329 339 324 295 276 277 292 307 305 300 305 312 319 2 22 2 326 284 263 261 270 281 288 290 292 296 296 289 282 275 272 273 275 276 276 275 277 280 277 278 283 286 289 289 283 280 278
38 23 19 20 18 12 3 358 355 356 7 9 8 10 9 13 18 7 9 36 36 31 41 43 40 38 29 23 19 14 12 12 8 358 342 330 324 319 343 354 335 324 317 285 276 290 298 297 306 324 347 356 351 346 342 340 335 317 300 294 294 293 292 296 300 300 296 292 290 290 289 289 287 285 286 285 280 283 286 286 286 287 283 279 278
23 23 19 16 20 17 8 8 3 358 4 5 1 2 5 6 1 351 357 36 44 30 32 46 44 35 31 28 18 9 8 8 9 7 359 351 345 349 19 6 352 356 3 336 294 298 318 317 323 346 1 350 332 324 328 339 346 343 331 316 304 302 303 301 297 297 299 301 301 298 295 293 289 285 284 282 280 281 279 275 273 271 263 260 264
16 22 19 19 20 15 9 9 6 0 2 3 357 356 2 2 351 345 351 27 40 26 20 42 47 35 30 29 20 8 1 358 3 8 8 5 10 33 29 12 9 25 26 15 19 34 30 22 23 20 12 356 331 315 315 323 329 326 321 314 307 304 306 304 297 290 287 289 294 296 299 304 303 299 290 281 279 277 272 270 270 264 255 254 261
4 15 39 68 46 23 19 11 5 8 8 4 2 359 357 359 354 347 351 21 38 22 9 28 45 41 36 30 23 12 356 352 1 8 12 10 13 27 27 15 12 20 21 19 26 36 35 32 31 23 10 358 343 328 321 321 325 323 316 312 306 298 294 294 297 297 294 292 293 295 299 303 307 311 308 298 290 283 276 274 271 261 253 254 259
9 13 32 82 73 39 30 20 10 13 10 5 10 9 1 5 6 354 357 23 41 24 8 18 47 58 53 25 17 11 357 360 6 10 13 14 12 14 15 9 6 9 13 9 8 22 34 22 9 5 359 350 340 333 328 322 320 323 325 321 302 288 287 289 294 298 298 297 298 301 305 308 309 309 309 304 301 296 288 281 273 265 257 252 253
21 11 360 49 77 61 34 18 1 359 13 19 21 17 14 21 21 11 13 30 39 35 23 21 44 62 51 14 17 21 15 19 18 18 22 23 23 27 20 14 18 23 22 12 3 16 25 12 359 358 356 347 340 338 335 327 322 323 322 312 295 288 291 296 301 306 305 301 297 296 299 305 308 307 306 305 306 308 307 304 298 285 270 260 260
33 38 6 21 70 82 67 24 338 348 5 21 35 28 20 37 45 32 23 39 68 76 61 52 64 60 29 27 85 88 47 36 29 27 32 33 34 39 37 34 41 42 29 18 8 9 11 6 2 3 2 2 8 14 12 6 358 347 332 320 310 303 298 299 308 316 318 315 310 303 300 301 302 304 305 306 306 308 312 314 315 311 301 293 288
20 52 36 11 29 78 109 63 35 54 19 12 39 37 12 14 50 53 26 20 94 124 115 94 81 73 56 76 99 85 52 43 31 24 29 35 37 41 43 45 52 55 48 38 27 21 19 17 14 14 21 32 38 37 34 28 22 15 3 350 341 334 326 320 323 326 322 317 313 308 306 305 304 303 303 306 309 311 315 315 313 311 312 311 309
15 34 56 30 13 27 62 32 14 25 33 28 41 40 17 7 14 23 23 17 25 66 88 85 76 71 68 85 102 91 60 40 24 17 22 31 35 38 44 48 51 57 65 62 47 44 49 48 42 39 42 47 48 45 40 33 31 30 22 15 14 14 12 9 1 351 339 327 320 316 319 323 322 320 318 320 325 327 326 325 322 318 316 315 312
37 357 25 66 33 352 10 72 41 7 10 34 43 42 38 24 9 5 13 23 28 38 50 54 57 58 58 70 78 70 51 33 21 16 20 33 39 34 32 33 35 51 70 63 40 34 42 54 61 57 52 52 52 48 40 32 32 33 26 23 29 30 24 23 20 13 3 356 352 347 341 339 337 334 330 331 335 336 333 331 327 323 320 319 315
85 3 338 76 85 8 354 65 81 35 22 33 40 41 49 50 28 8 8 18 25 30 37 45 45 38 36 47 57 54 38 25 23 24 27 38 46 36 29 32 43 57 55 32 13 360 358 18 56 62 59 61 58 50 40 32 33 34 28 25 28 27 25 27 28 22 14 8 4 359 351 346 341 335 332 335 340 343 343 342 336 331 329 326 322
8 33 328 350 97 84 22 8 55 72 56 40 36 44 49 52 47 32 20 20 20 20 29 40 40 33 31 36 45 47 33 20 22 30 35 42 49 47 43 47 55 55 30 5 353 336 333 350 14 24 30 51 53 47 43 38 37 36 31 28 27 24 24 28 31 25 18 12 8 4 1 3 3 357 354 357 358 356 356 355 347 340 338 335 329
332 328 273 284 59 108 108 6 23 92 93 71 54 57 57 54 53 47 43 44 38 31 36 40 33 32 37 38 39 41 30 20 24 32 36 42 49 53 51 48 47 38 19 10 12 17 15 17 22 23 26 34 38 36 36 39 40 35 30 30 30 26 23 26 28 23 17 15 13 6 4 7 7 4 2 2 1 1 2 360 353 347 346 346 342
225 271 255 191 125 199 165 103 74 111 116 103 83 77 75 69 64 60 58 61 60 56 62 67 56 49 50 50 48 41 28 26 35 41 44 45 47 49 47 40 33 27 22 24 40 57 57 49 45 42 42 43 40 34 31 32 32 29 27 28 28 26 24 24 23 17 13 15 15 9 8 9 6 3 3 0 359 2 2 359 356 355 353 352 350
220 235 236 147 116 261 249 124 118 131 136 132 113 98 95 87 76 71 67 65 66 69 74 80 82 75 66 61 59 51 41 44 52 54 56 56 54 51 48 42 38 35 34 40 54 60 56 52 50 48 46 43 39 33 29 27 25 23 24 24 23 23 20 18 18 14 8 11 12 9 9 10 6 4 3 359 358 2 2 359 0 2 360 356 353
237 229 181 123 120 260 283 91 101 121 141 154 151 132 119 108 92 81 74 68 66 69 75 80 82 84 84 74 62 52 49 58 62 57 57 60 61 60 58 54 49 44 42 46 51 53 53 51 47 45 44 40 36 31 27 24 20 19 19 18 20 21 16 12 12 10 5 6 7 6 7 6 3 1 360 356 357 359 359 360 4 5 2 360 355
258 260 123 114 121 225 266 165 188 228 125 154 167 162 153 146 132 112 92 80 74 70 71 74 72 71 72 67 56 49 46 50 54 57 58 57 57 58 60 60 56 49 46 50 50 47 48 47 42 40 38 35 32 29 25 22 20 18 16 14 14 16 14 10 9 7 6 7 7 4 4 3 1 358 357 356 356 356 355 358 1 0 358 358 354
265 297 84 118 148 191 198 186 203 211 184 156 176 169 163 163 163 162 150 115 93 81 75 74 73 72 74 72 64 60 58 55 52 52 52 43 29 22 28 53 65 59 51 50 50 46 44 43 40 38 35 30 28 26 22 20 19 17 15 12 9 10 12 8 6 6 6 6 5 3 1 0 359 357 356 357 356 353 352 353 354 354 353 350 348
247 273 294 278 258 223 197 192 210 208 156 126 338 93 128 146 166 174 178 179 165 137 109 92 86 80 76 75 73 69 63 60 58 53 46 33 15 5 3 14 74 65 49 41 40 43 44 41 37 36 33 30 27 25 21 19 17 16 15 10 4 7 11 7 3 4 6 4 3 2 359 358 358 355 353 354 353 350 350 352 352 351 349 347 344
229 231 234 255 274 279 273 233 201 186 156 188 222 142 113 129 177 169 177 193 192 181 168 140 103 88 80 73 71 69 64 61 60 55 48 38 23 15 18 28 45 54 51 43 33 30 38 41 35 30 29 27 24 22 19 15 13 13 11 7 4 8 9 3 359 2 6 5 2 359 357 357 357 355 352 351 349 348 348 349 347 345 344 345 342
226 219 213 220 230 246 263 260 204 173 157 192 217 131 119 155 228 192 179 189 195 189 181 172 153 108 92 77 60 45 32 23 26 38 44 43 31 16 12 21 31 37 44 44 33 23 28 36 33 25 23 22 22 19 15 11 10 9 6 3 3 4 2 358 355 359 4 3 360 357 356 355 354 353 350 347 346 345 345 343 342 341 342 344 341
224 214 195 186 193 218 241 239 193 170 145 142 234 215 179 188 250 260 211 125 42 294 180 169 175 191 135 84 52 29 8 346 330 328 346 16 20 7 359 11 28 31 32 34 30 22 20 25 29 24 18 17 18 16 11 7 6 3 0 360 360 359 359 359 359 360 359 356 355 355 354 352 351 349 345 342 342 342 341 341 340 338 338 340 340
221 223 199 177 179 199 221 211 196 212 224 219 236 247 228 194 198 252 238 146 120 292 226 173 175 189 175 128 64 30 8 349 328 308 293 302 348 1 6 15 26 31 27 23 23 23 18 19 22 19 13 12 16 14 8 5 1 356 355 357 355 354 356 357 358 357 351 348 350 352 350 347 345 343 342 342 341 339 338 338 337 335 334 335 337
216 229 231 200 185 198 220 209 188 190 198 209 222 234 241 217 214 242 250 204 190 216 238 222 187 176 165 144 96 40 19 3 340 322 326 15 4 358 24 29 20 21 23 18 19 21 15 14 18 14 7 7 12 9 3 360 357 353 352 352 351 353 355 354 353 351 346 342 344 348 347 343 340 340 341 340 337 334 333 333 333 332 330 329 331
213 220 223 219 212 218 233 241 219 196 194 208 222 222 213 215 229 238 238 232 224 214 234 271 287 168 161 148 90 45 32 14 343 332 346 354 279 258 113 49 11 350 346 4 21 17 5 2 7 4 358 359 4 4 359 354 353 351 348 348 350 350 349 348 347 344 340 337 339 341 340 337 337 339 340 338 334 332 330 328 329 329 327 326 326
212 210 208 206 205 209 222 238 243 226 211 214 223 222 209 210 230 253 254 255 258 224 241 277 309 136 153 155 86 50 39 18 342 309 276 262 275 302 5 16 355 335 332 350 360 353 349 352 350 347 346 347 349 350 349 346 346 346 344 343 345 344 343 344 341 335 332 333 335 335 333 332 335 338 338 334 332 330 327 325 325 325 324 323 324
213 199 193 194 193 196 206 220 230 235 236 229 224 225 220 209 212 224 231 246 276 271 269 289 326 131 147 152 77 56 37 5 321 278 272 289 337 2 6 2 352 344 345 352 348 338 338 341 334 328 331 334 335 337 337 333 332 332 330 330 333 334 335 335 332 327 326 330 332 331 331 333 336 336 331 328 326 325 323 323 323 322 322 322 323
213 189 181 186 193 197 204 212 217 222 227 225 224 229 229 222 227 233 222 209 219 242 262 278 235 158 160 167 129 79 31 330 280 268 281 313 352 7 7 2 359 358 2 6 0 352 350 348 340 333 332 329 327 329 329 326 324 321 319 319 319 316 315 321 325 323 317 318 325 331 334 335 333 328 324 323 323 321 319 320 320 320 321 320 319
213 195 184 184 188 194 202 211 216 219 219 219 220 224 223 223 237 249 241 225 226 238 257 271 239 180 171 183 202 205 240 265 267 276 299 329 347 0 9 3 358 1 5 3 357 356 356 351 343 337 332 325 319 316 315 316 319 321 321 322 320 311 304 304 308 304 300 305 319 331 335 332 326 323 321 320 318 316 314 315 315 316 316 316 316
213 210 202 194 190 192 197 205 213 220 222 217 214 216 219 222 230 236 238 243 247 246 248 263 264 227 198 205 221 229 233 247 271 300 337 352 354 359 4 355 349 357 359 354 350 350 349 344 340 337 334 330 325 319 315 313 314 314 315 317 318 317 315 309 297 281 281 295 313 329 333 330 324 320 317 315 314 313 311 309 309 310 311 313 312
213 213 213 209 204 201 201 204 209 216 220 219 218 217 215 217 226 234 237 243 254 255 250 252 261 264 250 232 230 239 247 256 276 299 320 335 335 332 332 338 353 358 353 351 351 347 341 341 341 339 337 336 334 332 330 327 321 315 310 309 310 312 313 311 301 284 279 290 307 323 330 329 323 319 315 313 312 310 308 306 305 305 307 308 308
213 214 214 216 213 210 209 209 211 213 216 218 221 222 220 221 225 226 220 217 224 234 240 246 257 268 271 269 267 274 279 276 269 276 301 316 307 303 322 349 2 0 351 351 351 341 335 338 339 335 335 337 338 336 333 332 331 330 327 325 322 320 319 320 317 303 288 292 309 325 330 330 327 324 320 314 309 306 305 304 303 302 302 302 303
213 214 214 216 216 214 212 212 214 219 224 225 223 223 225 230 232 225 215 218 224 226 230 241 258 263 261 264 274 285 291 291 275 264 285 305 309 315 332 341 340 337 339 340 333 324 324 329 326 317 314 318 322 323 323 323 326 329 330 333 339 342 341 340 336 321 306 313 325 330 331 329 325 321 315 309 304 303 302 302 301 301 300 300 300
214 217 216 215 215 216 214 213 216 221 224 225 225 224 225 230 236 241 261 277 271 252 242 243 245 244 249 263 277 283 290 306 323 325 313 307 309 316 321 319 319 323 322 313 303 303 312 314 304 292 291 299 309 317 319 318 315 312 312 314 319 323 327 329 325 316 315 320 325 327 328 325 319 314 307 303 301 301 300 298 298 299 299 298 299
213 219 221 217 214 214 215 218 222 226 225 222 220 220 220 222 227 247 269 277 277 271 261 251 244 240 245 265 287 287 293 324 330 324 320 316 317 323 325 319 316 316 315 312 306 302 303 304 301 298 304 318 328 330 329 327 321 309 307 311 315 317 321 323 321 317 318 321 324 327 329 328 324 317 309 303 301 299 297 296 295 295 296 295 296
212 217 221 219 215 215 217 219 224 233 240 232 213 201 196 195 203 232 263 274 274 268 260 253 245 236 221 187 125 86 63 336 284 279 276 276 284 303 319 324 323 319 316 312 305 297 295 301 309 316 324 332 336 335 332 332 332 327 325 323 319 316 316 318 318 318 321 323 324 326 328 329 328 323 314 306 300 296 295 294 293 293 294 294 293